Lafayette, CO

3:04 PM MDT on September 27, 2016 (GMT -0600)
Erie Municipal Airport

Weather History for KEIK - March, 2014

Change the Weather History Date:

Monday, March 31, 2014

  Actual Average (KBDU) Record (KBDU)
Temperature  
Mean Temperature 46 °F -  
Max Temperature 55 °F - 77 °F (2015)
Min Temperature 37 °F - 30 °F (2016)
Degree Days  
Heating Degree Days 19    
Month to date heating degree days  
Cooling Degree Days 0    
Month to date cooling degree days  
Moisture  
Dew Point 15 °F    
Average Humidity 31    
Maximum Humidity 53    
Minimum Humidity 13    
Precipitation  
Precipitation 0.00 in - 0.00 in (2016)
Sea Level Pressure  
Sea Level Pressure 29.81 in    
Wind  
Wind Speed 14 mph (NW)    
Max Wind Speed 25 mph    
Max Gust Speed 34 mph    
Visibility 10 miles    
Events      
T = Trace of Precipitation, MM = Missing Value Source: NWS Daily Summary

Daily Weather History Graph

Daily Weather History Graph

Search for Another Location

Airport or City:

Trip Planner

Search our weather history database for the weather conditions in past years. The results will help you decide how hot, cold, wet, or windy it might be!

Date:

Astronomy

Mar. 31, 2014 Rise Set
Actual Time 6:45 AM MDT 7:23 PM MDT
Civil Twilight 6:18 AM MDT 7:50 PM MDT
Nautical Twilight 5:46 AM MDT 8:23 PM MDT
Astronomical Twilight 5:13 AM MDT 8:56 PM MDT
Moon 7:10 AM MDT (3/31) 8:45 PM MDT (3/31)
Length of Visible Light 13h 32m
Length of Day
12h 37m
New Moon, 1% of the Moon is Illuminated
Mar 31
New Moon
Apr 7
First Quarter
Apr 15
Full
Apr 22
Last Quarter
Apr 29
New

Hourly Weather History & Observations

Time (MDT) Temp. Windchill Dew Point Humidity Pressure Visibility Wind Dir Wind Speed Gust Speed Precip Events Conditions
12:16 AM 47.3 °F - 21.2 °F 36% 29.49 in 10.0 mi SW 21.9 mph 26.5 mph N/A   Clear
12:36 AM 47.3 °F - 21.6 °F 36% 29.48 in 10.0 mi WSW 18.4 mph 24.2 mph N/A   Clear
12:56 AM 48.0 °F - 21.4 °F 35% 29.50 in 10.0 mi WSW 21.9 mph 28.8 mph N/A   Clear
1:16 AM 45.9 °F 41.7 °F 25.0 °F 44% 29.51 in 10.0 mi West 8.1 mph - N/A   Clear
1:36 AM 45.7 °F 42.0 °F 25.7 °F 46% 29.52 in 10.0 mi West 6.9 mph - N/A   Clear
1:56 AM 43.3 °F - 27.1 °F 53% 29.53 in 10.0 mi Calm Calm - N/A   Clear
2:16 AM 44.8 °F 42.4 °F 23.2 °F 43% 29.54 in 10.0 mi NW 4.6 mph - N/A   Clear
2:36 AM 44.8 °F 39.0 °F 19.9 °F 37% 29.55 in 10.0 mi NNW 11.5 mph 16.1 mph N/A   Clear
2:56 AM 43.7 °F 38.6 °F 21.7 °F 42% 29.57 in 10.0 mi WNW 9.2 mph 16.1 mph N/A   Clear
3:16 AM 43.0 °F 41.3 °F 21.2 °F 42% 29.59 in 10.0 mi North 3.5 mph - N/A   Clear
3:36 AM 43.0 °F 38.2 °F 18.3 °F 37% 29.60 in 10.0 mi North 8.1 mph - N/A   Clear
3:56 AM 41.2 °F 39.2 °F 19.9 °F 43% 29.61 in 10.0 mi NNW 3.5 mph - N/A   Clear
4:16 AM 42.1 °F 39.2 °F 18.0 °F 38% 29.62 in 10.0 mi North 4.6 mph - N/A   Clear
4:36 AM 43.5 °F 40.9 °F 16.7 °F 34% 29.63 in 10.0 mi NW 4.6 mph - N/A   Clear
4:56 AM 41.5 °F 34.2 °F 19.4 °F 41% 29.64 in 10.0 mi NW 13.8 mph - N/A   Clear
5:16 AM 39.9 °F 35.8 °F 20.7 °F 46% 29.66 in 10.0 mi West 5.8 mph - N/A   Clear
5:36 AM 39.6 °F 33.0 °F 21.0 °F 48% 29.68 in 10.0 mi WNW 10.4 mph - N/A   Clear
5:56 AM 37.9 °F 32.1 °F 20.8 °F 50% 29.69 in 10.0 mi West 8.1 mph - N/A   Clear
6:16 AM 40.1 °F 32.4 °F 17.6 °F 40% 29.69 in 10.0 mi WNW 13.8 mph 18.4 mph N/A   Clear
6:36 AM 42.1 °F 34.9 °F 16.2 °F 35% 29.70 in 10.0 mi WNW 13.8 mph 23.0 mph N/A   Clear
6:56 AM 40.6 °F 34.8 °F 17.6 °F 39% 29.71 in 10.0 mi West 9.2 mph 19.6 mph N/A   Clear
7:16 AM 39.6 °F 34.7 °F 18.1 °F 42% 29.73 in 10.0 mi West 6.9 mph - N/A   Clear
7:36 AM 42.6 °F 35.2 °F 15.1 °F 33% 29.73 in 10.0 mi West 15.0 mph 18.4 mph N/A   Clear
7:56 AM 44.6 °F 35.9 °F 14.5 °F 30% 29.73 in 10.0 mi WNW 23.0 mph 32.2 mph N/A   Clear
8:16 AM 45.7 °F 37.8 °F 15.1 °F 29% 29.75 in 10.0 mi WNW 20.7 mph 27.6 mph N/A   Clear
8:36 AM 46.8 °F - 15.6 °F 29% 29.76 in 10.0 mi West 19.6 mph 26.5 mph N/A   Clear
8:56 AM 47.5 °F - 14.5 °F 27% 29.77 in 10.0 mi West 17.3 mph 32.2 mph N/A   Clear
9:16 AM 48.2 °F - 13.8 °F 25% 29.79 in 10.0 mi WNW 19.6 mph 24.2 mph N/A   Clear
9:36 AM 49.1 °F - 12.4 °F 23% 29.79 in 10.0 mi West 19.6 mph 28.8 mph N/A   Clear
9:56 AM 50.4 °F - 13.5 °F 23% 29.80 in 10.0 mi NW 23.0 mph 27.6 mph N/A   Clear
10:16 AM 51.3 °F - 13.3 °F 22% 29.82 in 10.0 mi NW 20.7 mph 28.8 mph N/A   Clear
10:36 AM 51.3 °F - 12.0 °F 21% 29.83 in 10.0 mi NNW 17.3 mph 26.5 mph N/A   Clear
10:56 AM 52.0 °F - 12.0 °F 20% 29.84 in 10.0 mi NW 11.5 mph 20.7 mph N/A   Clear
11:16 AM 52.9 °F - 12.4 °F 20% 29.85 in 10.0 mi WNW 19.6 mph 25.3 mph N/A   Clear
11:36 AM 52.7 °F - 10.8 °F 19% 29.86 in 10.0 mi WNW 19.6 mph 27.6 mph N/A   Clear
11:56 AM 53.2 °F - 8.6 °F 17% 29.87 in 10.0 mi NW 13.8 mph 27.6 mph N/A   Clear
12:16 PM 54.0 °F - 9.5 °F 17% 29.87 in 10.0 mi WNW 19.6 mph 27.6 mph N/A   Clear
12:36 PM 54.3 °F - 9.9 °F 17% 29.87 in 10.0 mi WNW 23.0 mph 28.8 mph N/A   Clear
12:56 PM 53.8 °F - 9.0 °F 17% 29.88 in 10.0 mi West 24.2 mph 32.2 mph N/A   Clear
1:16 PM 54.1 °F - 9.5 °F 17% 29.88 in 10.0 mi WNW 24.2 mph 33.4 mph N/A   Clear
1:36 PM 54.0 °F - 7.5 °F 16% 29.89 in 10.0 mi West 25.3 mph 34.5 mph N/A   Clear
1:56 PM 54.9 °F - 7.0 °F 15% 29.89 in 10.0 mi West 24.2 mph 31.1 mph N/A   Clear
2:16 PM 54.7 °F - 5.9 °F 14% 29.90 in 10.0 mi WNW 19.6 mph 33.4 mph N/A   Clear
2:36 PM 55.4 °F - 6.3 °F 14% 29.90 in 10.0 mi West 17.3 mph 29.9 mph N/A   Clear
2:56 PM 54.7 °F - 4.3 °F 13% 29.90 in 10.0 mi WNW 19.6 mph 32.2 mph N/A   Clear
3:12 PM 55.0 °F - 5.9 °F 14% 29.90 in 10.0 mi West 19.6 mph 26.5 mph N/A   Clear
3:36 PM 55.0 °F - 8.2 °F 15% 29.90 in 10.0 mi WNW 16.1 mph 23.0 mph N/A   Scattered Clouds
3:56 PM 54.5 °F - 8.6 °F 16% 29.89 in 10.0 mi WNW 9.2 mph 21.9 mph N/A   Clear
4:16 PM 54.3 °F - 7.5 °F 15% 29.89 in 10.0 mi WNW 16.1 mph 23.0 mph N/A   Clear
4:36 PM 54.7 °F - 7.3 °F 15% 29.90 in 10.0 mi NW 10.4 mph 18.4 mph N/A   Clear
4:56 PM 54.7 °F - 8.1 °F 15% 29.89 in 10.0 mi NNW 11.5 mph 16.1 mph N/A   Clear
5:16 PM 54.5 °F - 5.7 °F 14% 29.90 in 10.0 mi NNW 16.1 mph 20.7 mph N/A   Clear
5:36 PM 54.3 °F - 8.1 °F 16% 29.89 in 10.0 mi NNW 15.0 mph 21.9 mph N/A   Clear
5:56 PM 54.0 °F - 7.9 °F 16% 29.89 in 10.0 mi North 11.5 mph - N/A   Clear
6:16 PM 53.6 °F - 6.8 °F 15% 29.89 in 10.0 mi NNW 10.4 mph - N/A   Clear
6:36 PM 52.3 °F - 11.5 °F 20% 29.89 in 10.0 mi North 9.2 mph - N/A   Clear
6:56 PM 50.0 °F - 11.3 °F 21% 29.89 in 10.0 mi NNE 12.7 mph - N/A   Scattered Clouds
7:16 PM 48.9 °F - 12.2 °F 23% 29.90 in 10.0 mi East 8.1 mph - N/A   Scattered Clouds
7:36 PM 46.0 °F 38.8 °F 17.2 °F 32% 29.92 in 10.0 mi East 18.4 mph 26.5 mph N/A   Mostly Cloudy
7:56 PM 44.6 °F 37.4 °F 18.0 °F 34% 29.94 in 10.0 mi East 16.1 mph 25.3 mph N/A   Overcast
8:16 PM 43.7 °F 36.3 °F 19.0 °F 37% 29.94 in 10.0 mi East 16.1 mph 21.9 mph N/A   Scattered Clouds
8:36 PM 42.3 °F 37.3 °F 19.9 °F 41% 29.98 in 10.0 mi East 8.1 mph 19.6 mph N/A   Scattered Clouds
8:56 PM 41.4 °F 36.8 °F 20.3 °F 43% 30.00 in 10.0 mi East 6.9 mph - N/A   Clear
9:16 PM 40.3 °F 38.2 °F 21.0 °F 46% 30.01 in 10.0 mi ESE 3.5 mph - N/A   Scattered Clouds
9:36 PM 39.9 °F 34.5 °F 22.1 °F 49% 30.03 in 10.0 mi ESE 8.1 mph - N/A   Overcast
9:56 PM 39.2 °F 33.0 °F 21.9 °F 50% 30.03 in 10.0 mi ESE 9.2 mph - N/A   Overcast
10:16 PM 38.5 °F 33.4 °F 22.5 °F 53% 30.02 in 10.0 mi ESE 6.9 mph - N/A   Overcast
10:36 PM 38.8 °F 33.8 °F 21.7 °F 50% 30.03 in 10.0 mi SE 6.9 mph - N/A   Overcast
10:56 PM 38.3 °F 33.9 °F 22.5 °F 53% 30.02 in 10.0 mi ESE 5.8 mph - N/A   Overcast
11:16 PM 38.3 °F 33.9 °F 22.5 °F 53% 30.03 in 10.0 mi ESE 5.8 mph - N/A   Overcast
11:36 PM 38.3 °F 33.9 °F 22.1 °F 52% 30.02 in 10.0 mi ESE 5.8 mph - N/A   Overcast
11:56 PM 38.3 °F - 21.9 °F 52% 30.00 in 10.0 mi Calm Calm - N/A   Mostly Cloudy